Wetbulb
54.93 54.95 55.29 55.31 55.73 56.20 56.28 56.27 56.06 56.19 56.63 56.81 56.86 56.93 56.03 55.63 54.07 47.21 44.66 51.89 55.08 59.57 55.69 45.65 45.51 44.51 43.98 41.98 42.75 42.82 33.94 31.91 34.40 35.50 37.24 40.15 39.86 42.48 44.85 43.46 44.92 44.87 42.95 45.03 47.33
54.26 54.58 54.82 54.93 55.64 56.03 56.24 56.17 56.01 56.13 56.26 56.19 56.40 56.60 56.57 55.14 44.76 43.39 52.65 57.80 58.50 57.56 46.47 43.47 42.26 42.28 38.78 39.28 38.35 37.02 32.69 33.80 36.69 36.65 35.84 38.18 39.99 40.28 40.93 39.84 39.93 41.27 43.75 44.35 46.47
53.21 53.64 54.17 54.52 55.16 55.75 56.09 56.02 55.83 55.71 55.83 56.24 56.54 57.05 56.78 50.80 39.72 41.56 55.81 57.18 57.93 52.67 47.27 44.49 42.55 41.46 37.29 37.57 36.37 35.66 32.24 35.64 36.37 38.19 38.22 39.00 39.49 41.44 38.58 37.18 40.27 39.08 40.50 41.71 43.30
53.06 52.94 53.41 54.14 54.73 55.14 55.30 55.64 55.47 55.55 55.79 56.16 57.43 56.89 54.21 43.65 31.68 44.94 55.48 55.83 56.01 49.34 45.94 42.63 40.50 37.40 34.99 34.10 37.14 34.13 36.00 36.15 38.02 39.23 38.96 37.87 40.86 38.41 39.52 40.01 42.44 41.63 40.97 40.25 40.80
53.11 52.94 52.76 53.49 54.13 54.17 54.62 55.08 55.32 55.33 55.64 56.14 57.61 54.93 44.84 39.44 39.50 48.27 52.97 51.62 49.31 46.91 43.70 40.96 38.27 36.54 33.71 35.11 36.52 35.17 35.35 37.28 37.79 38.58 37.89 39.57 37.44 37.85 39.05 41.07 39.73 40.72 39.68 38.92 39.66
53.27 53.10 52.90 53.01 53.84 54.06 54.49 54.62 54.91 55.08 55.48 56.63 57.15 53.88 41.13 35.31 46.56 47.15 46.43 48.33 47.38 45.59 43.36 42.15 38.56 38.59 36.64 35.21 34.97 36.15 36.61 35.96 37.00 36.72 37.56 36.67 35.64 36.55 36.89 39.26 37.48 37.31 37.08 37.90 38.44
53.23 53.11 53.01 52.99 53.30 54.03 54.51 54.39 54.40 54.50 54.88 55.95 55.59 45.99 40.96 39.54 45.52 46.05 46.49 46.11 46.75 45.50 42.93 43.46 42.90 39.78 37.70 35.32 37.61 35.92 33.60 34.55 34.98 35.97 35.81 37.01 33.28 33.56 36.10 37.35 35.53 34.92 35.33 36.78 37.79
53.41 53.42 53.18 53.11 52.97 53.72 54.13 54.76 54.98 54.37 55.17 56.31 53.89 42.74 37.17 45.54 45.06 45.40 46.03 45.76 47.41 46.76 44.40 43.69 43.51 40.30 38.78 38.44 35.52 32.57 31.39 27.84 33.35 35.49 36.11 35.44 28.42 34.87 36.10 35.08 34.63 34.12 33.84 35.06 36.33
54.09 53.93 53.63 53.79 53.78 54.06 54.39 55.35 53.77 54.21 54.95 53.53 42.86 39.47 35.29 48.64 43.05 44.39 44.75 43.76 45.13 44.98 43.84 44.94 41.47 36.60 36.22 30.55 28.05 29.03 25.20 27.36 29.79 34.32 34.17 33.29 30.05 34.81 35.70 34.74 33.71 33.34 33.47 34.22 35.22
54.63 54.11 53.90 54.03 53.76 54.46 54.44 54.62 52.05 51.12 47.20 44.12 43.43 37.00 40.33 38.19 41.90 43.00 43.92 44.81 42.94 41.43 40.26 38.90 35.33 31.47 30.73 27.26 22.50 25.71 25.49 27.66 26.47 30.79 32.45 30.58 30.03 32.89 34.74 34.06 33.26 32.83 33.09 33.60 34.16
55.04 54.31 54.00 53.92 53.73 53.53 48.07 42.23 39.65 37.80 40.11 36.28 36.46 36.54 38.59 42.50 42.86 41.67 43.23 42.54 41.40 37.65 31.60 34.35 30.62 28.20 29.46 30.47 29.98 28.19 27.27 25.69 27.78 31.58 31.01 29.49 29.44 32.27 33.35 32.86 32.33 32.94 33.28 33.66 34.02
55.16 54.17 53.68 53.07 53.58 51.72 44.96 39.84 38.42 40.05 34.17 38.90 38.94 39.03 40.87 41.04 36.64 40.16 44.10 37.49 36.11 30.99 32.21 30.59 29.00 31.69 33.45 32.41 31.00 29.60 27.35 25.77 28.86 31.32 30.75 29.12 29.39 30.99 32.53 32.58 33.18 33.56 33.58 33.64 33.96
54.95 53.54 53.00 52.82 53.11 46.18 42.39 42.21 46.41 43.61 34.73 35.40 38.46 38.05 38.56 40.32 36.16 37.13 40.75 37.31 33.21 30.60 29.56 27.81 30.52 34.01 31.87 30.73 30.00 29.49 26.90 26.65 27.67 30.42 29.85 27.10 25.54 28.24 31.88 32.99 33.85 34.16 34.23 34.32 33.84
54.59 52.89 52.16 52.53 45.00 41.88 41.23 45.76 46.11 44.18 31.29 31.94 34.44 37.39 39.36 39.26 34.94 40.35 39.61 37.05 34.29 30.45 29.71 29.49 31.67 31.20 30.23 29.86 30.13 27.24 30.95 30.32 29.78 26.58 23.35 27.18 20.25 25.78 28.95 30.48 32.06 32.81 32.99 33.36 33.62
54.07 51.66 51.63 49.37 41.07 39.72 42.73 45.83 44.57 42.52 26.61 32.84 34.17 41.44 39.41 35.43 34.94 37.21 38.86 37.50 31.64 31.91 28.51 27.61 29.23 29.00 28.75 29.70 31.76 28.47 31.70 30.35 29.54 27.24 24.88 25.36 19.03 24.95 27.19 29.21 31.38 32.60 32.96 33.10 33.47
53.05 50.76 50.41 45.11 41.99 43.26 45.45 44.44 42.53 34.24 26.07 30.34 33.95 33.85 33.19 34.91 35.18 36.80 35.16 37.50 35.51 31.35 30.67 29.27 32.97 31.53 30.17 31.68 32.03 32.09 30.65 25.93 25.15 25.26 12.62 23.86 20.81 22.95 26.11 29.33 30.38 32.04 32.64 33.00 32.91
51.77 50.05 46.86 45.70 38.53 44.63 43.30 42.15 34.18 29.71 32.25 29.11 29.53 32.66 31.18 30.59 32.22 32.78 30.24 28.62 26.08 22.58 18.62 26.57 28.12 29.74 32.44 29.07 30.33 28.43 21.80 10.55 13.57 10.68 13.21 21.51 19.88 24.42 28.45 29.80 30.90 32.01 32.41 32.99 32.91
51.15 48.11 46.04 44.45 43.66 43.74 41.60 37.99 32.37 30.45 28.89 30.89 31.62 30.89 28.97 30.23 30.13 31.54 29.17 25.79 27.23 23.68 16.51 17.55 18.51 27.46 30.49 30.11 27.73 27.85 23.32 14.88 13.06 9.96 12.19 21.50 19.04 26.47 30.48 32.26 32.87 32.75 32.52 32.66 32.39
49.88 43.31 42.30 42.45 43.37 42.86 39.40 29.06 33.81 35.07 33.54 30.78 30.26 28.80 28.65 30.02 29.70 28.77 26.99 25.09 26.55 26.01 21.27 16.43 19.53 29.13 30.67 30.76 29.31 25.74 20.36 26.66 15.89 15.64 11.66 17.14 21.59 26.52 30.69 31.66 31.80 32.30 32.62 32.14 32.37
43.20 41.87 41.36 43.81 42.26 41.12 34.69 33.38 32.94 35.20 33.42 33.20 31.72 31.10 28.92 27.73 27.05 27.13 27.30 28.94 28.45 29.42 27.36 21.25 18.52 24.87 28.94 31.17 30.73 28.25 28.89 16.98 15.03 9.21 10.05 12.25 14.69 21.93 28.20 30.28 30.63 30.86 30.92 31.51 31.87
43.02 39.18 41.89 43.70 41.90 36.11 29.26 31.26 33.52 34.67 34.88 33.42 30.84 29.20 30.11 29.02 28.20 27.56 28.85 28.95 29.52 28.96 28.32 21.77 21.36 20.90 26.52 23.33 24.84 26.62 22.55 24.24 22.28 18.49 8.59 5.34 17.96 22.71 27.25 29.54 29.75 30.07 30.90 30.84 31.18
41.54 33.37 42.13 42.03 32.33 26.53 28.22 33.25 36.42 32.64 34.90 33.49 33.67 31.73 30.56 30.05 28.70 27.52 28.54 28.29 32.03 29.95 26.30 27.35 22.26 16.71 19.12 24.92 27.84 27.19 25.14 24.00 17.49 12.04 13.00 13.22 16.11 27.94 27.26 28.86 30.27 30.71 31.43 31.66 31.51
36.68 36.40 41.28 41.27 28.24 24.94 27.30 32.78 33.78 32.08 32.64 32.14 32.78 33.19 32.42 30.32 30.45 28.95 28.60 30.73 31.95 30.66 28.26 28.72 21.22 15.97 19.54 22.78 25.46 24.82 27.09 26.62 22.68 20.20 12.35 9.75 18.01 25.96 25.54 28.08 29.74 29.10 28.17 28.05 28.39
36.59 32.71 32.74 35.97 31.14 30.19 27.34 29.91 31.53 34.03 33.17 33.33 32.53 33.95 31.48 29.05 30.18 28.09 29.41 30.55 31.72 31.23 36.00 31.13 18.13 22.41 22.32 23.79 23.50 19.37 23.30 26.35 22.26 12.27 14.07 14.23 16.27 23.11 20.01 19.83 23.84 24.37 25.09 23.73 25.94
37.00 33.36 33.16 29.09 24.74 32.62 32.85 33.52 30.70 29.70 33.18 33.25 30.02 32.94 31.84 29.37 27.68 28.25 29.79 29.75 30.50 34.94 29.79 27.90 20.26 15.86 19.08 21.74 23.61 23.58 22.10 24.04 18.41 21.39 19.51 18.87 15.58 22.82 21.41 20.79 22.87 24.34 26.99 26.72 25.50
35.43 34.02 34.50 28.15 33.63 33.15 34.20 31.89 32.56 32.07 31.34 30.31 31.33 32.34 32.55 32.39 33.50 29.34 29.34 29.12 28.36 30.03 28.34 28.00 20.91 18.47 17.86 18.01 21.34 20.27 22.95 23.68 22.44 16.91 17.84 15.49 19.97 28.25 29.47 27.26 24.50 26.17 27.06 26.78 28.30
42.29 40.87 39.77 34.16 31.66 33.70 35.18 33.81 34.42 35.67 34.30 35.79 34.13 32.41 31.18 33.73 33.71 32.35 31.73 32.68 31.31 29.68 26.95 25.44 21.24 16.39 18.42 14.96 15.02 20.44 18.15 22.73 23.74 24.09 23.29 19.56 26.16 27.12 26.34 28.98 27.86 30.23 30.59 29.94 31.36
MSLP
1022.17 1022.14 1022.07 1021.59 1021.23 1020.92 1020.86 1020.76 1020.61 1020.09 1019.90 1019.80 1019.73 1019.73 1019.55 1019.44 1019.19 1019.02 1019.83 1020.59 1019.67 1018.85 1018.35 1018.02 1018.11 1018.22 1018.31 1019.76 1020.32 1020.91 1022.65 1024.11 1024.10 1024.00 1023.88 1023.85 1023.86 1024.19 1024.28 1024.43 1024.71 1025.05 1025.45 1025.17 1024.38
1022.35 1022.19 1022.20 1021.84 1021.29 1020.91 1020.93 1020.84 1020.66 1020.31 1019.84 1019.54 1019.62 1019.62 1019.59 1019.51 1019.64 1019.69 1020.22 1019.90 1019.34 1018.81 1018.68 1018.54 1018.69 1018.74 1019.98 1020.97 1021.39 1022.07 1023.76 1024.22 1024.08 1023.94 1024.06 1024.07 1024.35 1024.71 1024.73 1025.07 1025.36 1025.49 1025.51 1025.22 1024.56
1022.11 1022.28 1021.94 1022.20 1021.27 1020.70 1020.68 1020.77 1020.58 1020.37 1019.90 1019.41 1019.29 1019.34 1019.44 1019.59 1019.89 1020.59 1019.95 1019.41 1019.03 1018.89 1019.01 1019.08 1019.16 1019.41 1021.29 1022.06 1022.70 1023.07 1024.13 1024.23 1024.24 1024.12 1024.07 1024.21 1024.60 1025.08 1025.29 1025.75 1026.06 1026.26 1026.02 1025.49 1024.95
1022.57 1022.27 1021.84 1022.16 1021.70 1020.89 1020.54 1020.56 1020.56 1020.54 1019.99 1019.42 1019.16 1019.05 1019.20 1019.59 1021.12 1020.88 1020.29 1019.60 1019.11 1018.82 1019.09 1019.43 1019.71 1020.72 1022.33 1023.09 1023.31 1023.87 1024.36 1024.33 1024.50 1024.30 1024.25 1024.51 1024.81 1025.64 1026.01 1026.26 1026.25 1026.27 1026.10 1025.79 1025.36
1022.67 1022.77 1021.96 1022.00 1021.80 1021.15 1020.63 1020.30 1020.52 1020.33 1020.22 1019.65 1019.19 1019.11 1019.26 1020.45 1021.59 1020.81 1020.47 1019.93 1019.28 1019.14 1020.02 1020.08 1020.44 1021.57 1023.05 1023.46 1023.58 1024.02 1024.46 1024.58 1024.62 1024.80 1024.81 1024.67 1024.94 1025.65 1026.21 1026.39 1026.33 1026.31 1026.25 1026.10 1025.83
1022.81 1022.96 1022.42 1021.84 1021.85 1021.50 1020.71 1020.23 1020.24 1020.26 1020.26 1019.93 1019.35 1019.19 1019.41 1020.97 1021.44 1021.31 1020.90 1020.25 1020.12 1020.23 1020.98 1020.69 1021.18 1021.57 1022.98 1023.75 1024.07 1024.39 1024.52 1024.98 1025.00 1024.96 1025.17 1025.15 1025.27 1025.57 1026.10 1026.40 1026.65 1026.74 1026.61 1026.35 1026.03
1022.67 1022.72 1022.45 1021.73 1021.72 1021.61 1020.96 1020.31 1020.25 1020.09 1020.01 1019.96 1019.66 1019.41 1020.40 1021.64 1021.51 1021.43 1021.01 1020.88 1020.94 1020.99 1021.32 1021.46 1021.35 1021.88 1023.10 1024.02 1024.49 1024.66 1024.99 1025.27 1025.37 1025.27 1025.52 1025.55 1025.79 1025.62 1026.00 1026.19 1026.64 1026.95 1026.81 1026.52 1026.25
1022.61 1022.74 1022.38 1022.13 1021.54 1021.33 1020.95 1020.60 1020.35 1019.89 1019.90 1019.70 1019.92 1019.81 1021.18 1021.24 1021.18 1021.52 1021.40 1020.99 1021.08 1021.28 1021.61 1021.63 1021.57 1022.61 1023.87 1024.49 1025.15 1025.43 1025.79 1026.16 1025.90 1025.51 1025.78 1026.11 1025.73 1025.61 1025.96 1026.33 1026.59 1026.79 1026.89 1026.60 1026.35
1022.29 1022.54 1022.29 1022.03 1021.55 1021.00 1020.83 1020.58 1020.57 1019.95 1019.75 1019.67 1020.09 1020.12 1021.60 1021.21 1021.59 1022.03 1021.97 1021.83 1021.61 1021.71 1021.95 1021.85 1022.24 1024.32 1024.99 1025.66 1026.37 1026.69 1026.82 1027.05 1026.45 1026.34 1026.57 1026.69 1025.99 1025.64 1025.98 1026.27 1026.48 1026.68 1026.79 1026.60 1026.33
1022.41 1022.39 1022.17 1021.82 1021.54 1020.78 1020.72 1020.64 1020.48 1020.10 1020.04 1020.01 1020.49 1021.25 1021.97 1022.51 1022.36 1022.35 1022.18 1022.12 1022.06 1022.29 1022.42 1023.12 1024.31 1025.75 1026.98 1026.93 1027.55 1027.38 1027.35 1027.52 1027.24 1026.93 1026.70 1026.69 1026.25 1025.83 1025.81 1026.07 1026.26 1026.40 1026.61 1026.44 1026.17
1022.38 1022.24 1022.03 1021.78 1021.37 1020.74 1020.90 1020.92 1021.43 1021.21 1021.37 1022.23 1022.66 1022.57 1022.65 1022.63 1022.45 1022.66 1022.52 1022.47 1022.65 1023.51 1024.52 1025.11 1026.19 1027.93 1028.29 1028.25 1028.11 1028.08 1027.77 1028.04 1027.44 1027.30 1027.10 1026.99 1026.44 1025.65 1025.61 1025.85 1025.93 1026.03 1026.22 1026.22 1025.94
1022.15 1022.20 1021.88 1021.59 1021.40 1020.92 1021.31 1021.54 1022.07 1022.16 1022.57 1022.99 1022.85 1023.02 1023.06 1023.00 1022.91 1023.05 1022.55 1023.21 1023.78 1025.09 1025.48 1026.11 1027.76 1028.39 1028.21 1028.15 1028.25 1028.50 1028.28 1028.29 1027.84 1027.57 1027.78 1027.26 1026.25 1025.48 1025.43 1025.54 1025.50 1025.65 1025.77 1025.91 1025.81
1022.04 1021.98 1021.86 1021.33 1021.24 1021.22 1021.72 1021.94 1022.22 1022.15 1022.04 1023.27 1023.24 1023.03 1023.45 1023.20 1023.64 1023.74 1023.42 1024.05 1024.92 1025.99 1026.29 1026.85 1028.17 1028.19 1028.28 1028.51 1028.56 1028.71 1028.64 1028.75 1028.86 1028.02 1027.98 1027.38 1026.46 1025.72 1025.29 1025.30 1025.21 1025.24 1025.43 1025.60 1025.74
1021.87 1021.70 1021.75 1021.56 1021.55 1021.86 1021.97 1021.86 1021.91 1021.89 1022.63 1023.55 1023.24 1023.21 1023.48 1023.41 1023.93 1024.03 1024.13 1024.20 1025.35 1026.56 1027.00 1027.77 1028.12 1028.21 1028.49 1028.77 1029.08 1029.00 1029.00 1029.09 1028.86 1028.47 1028.72 1028.21 1027.97 1026.05 1025.43 1025.21 1025.08 1025.08 1025.20 1025.32 1025.51
1021.69 1021.56 1021.51 1021.85 1021.85 1022.16 1022.59 1022.09 1021.70 1021.75 1023.33 1023.70 1023.21 1023.19 1023.52 1023.69 1024.24 1024.30 1024.48 1024.29 1025.70 1026.79 1027.38 1028.40 1028.24 1028.33 1028.60 1029.02 1029.25 1029.47 1029.23 1029.19 1029.21 1029.30 1029.40 1029.33 1029.19 1026.04 1025.53 1025.00 1024.85 1024.92 1025.03 1025.07 1025.22
1021.41 1021.85 1021.09 1022.19 1021.98 1022.34 1022.75 1022.31 1021.88 1022.38 1023.14 1023.58 1023.26 1023.32 1023.65 1024.03 1024.33 1024.45 1024.59 1024.96 1026.11 1026.78 1027.74 1028.57 1028.44 1028.59 1028.88 1029.09 1029.26 1029.45 1029.59 1029.74 1030.08 1030.21 1030.52 1030.19 1029.70 1026.63 1025.60 1025.05 1024.82 1024.81 1025.03 1025.17 1025.11
1021.46 1021.75 1021.23 1022.19 1022.44 1022.03 1023.20 1022.80 1022.57 1023.45 1023.98 1023.80 1023.53 1023.48 1023.71 1024.25 1024.61 1024.86 1025.31 1026.13 1026.86 1027.80 1028.94 1029.34 1029.19 1029.06 1029.18 1029.33 1029.39 1029.84 1030.36 1030.63 1031.71 1031.53 1031.91 1030.61 1029.69 1026.46 1025.21 1024.79 1024.77 1024.83 1024.93 1025.09 1025.26
1021.61 1021.64 1021.75 1022.11 1022.62 1022.33 1023.25 1023.10 1022.77 1023.09 1023.53 1023.83 1023.85 1023.82 1024.05 1024.49 1024.82 1025.20 1025.82 1026.81 1027.46 1027.85 1029.67 1030.24 1029.91 1029.47 1029.80 1029.96 1030.15 1030.33 1030.73 1030.85 1032.70 1033.78 1032.79 1030.75 1028.88 1025.32 1024.53 1024.57 1024.58 1024.73 1024.91 1025.10 1025.23
1021.62 1022.24 1021.58 1022.25 1022.34 1022.87 1023.19 1023.27 1022.14 1022.12 1022.23 1023.80 1024.19 1024.01 1024.28 1024.53 1024.86 1025.18 1025.86 1026.89 1027.59 1028.07 1029.20 1030.27 1030.50 1030.10 1030.04 1030.29 1030.58 1030.35 1030.80 1031.44 1032.61 1034.52 1033.75 1030.77 1028.32 1025.37 1024.00 1024.06 1024.31 1024.70 1024.92 1025.02 1025.13
1021.58 1022.23 1021.98 1022.17 1022.64 1023.07 1023.29 1023.08 1022.19 1021.76 1021.88 1022.74 1023.88 1023.81 1024.27 1024.43 1024.85 1025.19 1025.62 1026.63 1027.70 1028.31 1028.86 1030.12 1030.56 1030.93 1030.65 1030.70 1030.68 1030.83 1031.02 1031.53 1032.37 1033.98 1033.95 1031.09 1029.16 1026.51 1024.62 1024.13 1024.34 1024.74 1025.18 1025.12 1025.09
1021.20 1021.77 1022.69 1022.10 1022.66 1023.35 1023.83 1023.25 1022.53 1021.78 1021.59 1022.35 1023.21 1023.70 1023.83 1024.20 1024.65 1025.14 1025.57 1026.76 1027.44 1028.59 1029.03 1029.97 1030.49 1031.48 1031.18 1031.17 1031.02 1031.28 1031.23 1031.71 1032.41 1033.79 1034.13 1032.66 1028.44 1025.33 1024.75 1024.57 1024.65 1024.82 1025.14 1025.32 1025.39
1020.71 1022.37 1022.52 1022.04 1023.41 1024.25 1023.31 1022.44 1022.19 1021.99 1021.97 1022.04 1022.48 1023.68 1023.78 1023.94 1024.62 1025.25 1025.63 1026.36 1027.19 1027.91 1028.91 1029.49 1030.17 1031.00 1031.44 1031.40 1031.40 1031.35 1031.08 1031.23 1031.99 1034.05 1034.31 1033.38 1027.84 1024.76 1024.56 1024.25 1024.62 1024.53 1024.73 1024.89 1025.31
1020.44 1021.90 1022.35 1021.95 1022.87 1024.17 1022.86 1022.46 1022.13 1021.97 1021.95 1021.83 1022.67 1023.37 1024.05 1024.29 1024.72 1025.14 1025.75 1026.74 1027.27 1027.88 1028.38 1029.02 1029.88 1030.91 1031.30 1031.73 1031.61 1031.57 1030.92 1031.04 1031.75 1032.66 1033.63 1033.07 1027.60 1025.20 1025.10 1024.61 1024.32 1024.75 1024.67 1024.90 1024.94
1019.96 1021.60 1023.01 1022.54 1022.22 1022.58 1022.73 1022.23 1022.01 1021.54 1021.48 1021.48 1022.30 1022.78 1024.44 1024.62 1024.80 1025.29 1026.15 1026.95 1027.38 1027.76 1028.14 1028.51 1029.62 1030.06 1030.49 1030.28 1030.45 1031.29 1030.81 1030.81 1031.13 1032.23 1032.70 1030.86 1027.64 1025.85 1025.39 1025.19 1024.67 1024.88 1024.51 1024.74 1024.77
1018.09 1019.06 1019.14 1020.97 1021.51 1021.09 1021.37 1021.00 1021.39 1021.45 1021.46 1021.56 1022.33 1021.99 1023.48 1024.88 1025.48 1025.43 1026.19 1027.04 1027.58 1027.75 1028.34 1028.90 1029.67 1030.47 1030.09 1030.00 1030.24 1030.07 1029.92 1030.27 1030.62 1030.12 1030.12 1028.47 1027.89 1024.90 1024.59 1025.10 1024.48 1023.85 1023.85 1024.14 1024.46
1016.84 1018.20 1019.10 1019.17 1018.95 1020.49 1020.37 1019.66 1019.90 1020.56 1020.64 1021.33 1021.55 1022.01 1022.87 1023.66 1024.14 1024.68 1025.56 1026.45 1026.46 1028.01 1028.50 1028.93 1029.73 1030.49 1030.45 1030.26 1030.21 1029.74 1028.90 1029.06 1029.54 1029.59 1028.55 1027.61 1026.13 1023.54 1023.07 1023.57 1023.90 1023.37 1023.14 1023.22 1023.53
1015.53 1016.18 1016.52 1017.93 1018.84 1018.95 1017.79 1017.87 1017.73 1018.65 1020.12 1020.02 1020.74 1021.92 1023.30 1023.01 1023.84 1024.64 1024.85 1025.05 1025.55 1026.60 1028.03 1028.77 1029.66 1030.65 1030.40 1029.93 1029.64 1028.41 1025.98 1026.70 1026.99 1026.52 1026.06 1025.91 1023.17 1022.51 1022.49 1022.88 1022.60 1022.37 1022.34 1022.35 1022.45
Wind_Speed
10 10 11 10 9 9 7 7 8 8 9 10 10 11 11 11 6 6 11 8 11 17 10 4 5 4 6 6 6 3 6 2 2 1 3 4 5 4 1 3 3 3 3 9 15
10 10 11 10 9 9 8 7 8 8 8 9 10 10 9 8 3 10 5 18 16 14 6 6 4 6 6 5 5 7 4 3 2 1 2 3 2 3 2 5 3 2 8 12 12
7 9 10 12 9 9 8 7 7 7 8 9 10 9 7 4 4 6 17 21 18 9 2 2 3 5 7 4 6 3 3 3 2 2 3 1 2 1 2 3 0 5 10 11 9
9 8 9 11 11 9 8 7 7 8 8 8 10 6 4 2 2 5 20 19 14 5 3 4 5 6 6 5 4 7 4 1 4 5 1 2 3 2 3 1 2 3 5 6 11
8 9 9 9 10 9 7 7 7 7 8 7 8 5 3 9 2 6 17 13 4 6 6 2 7 5 5 4 3 6 1 5 2 5 3 2 3 2 1 2 3 4 6 7 8
8 10 10 9 10 11 8 6 6 6 7 7 7 3 6 8 4 8 9 6 7 8 9 7 4 4 7 3 5 3 5 3 5 4 5 2 1 2 2 1 3 5 5 6 6
7 8 10 10 11 12 10 7 5 4 5 6 5 4 10 5 3 7 7 4 5 4 4 4 4 6 4 4 3 2 4 3 7 6 4 1 4 2 2 1 4 5 5 6 6
7 9 10 11 11 11 11 10 7 3 4 2 1 4 5 0 0 5 8 2 7 6 3 3 7 9 6 3 6 4 5 4 3 7 3 3 7 2 1 2 4 5 5 6 6
6 8 10 10 11 10 12 9 6 3 2 3 3 5 3 3 5 5 6 3 4 2 6 3 8 5 7 4 4 7 3 3 6 4 3 2 7 3 3 3 5 4 5 6 5
7 8 9 12 10 10 11 3 4 3 5 2 3 5 6 3 4 4 4 3 7 4 5 10 7 6 5 6 0 1 3 3 4 4 5 5 9 6 5 4 6 4 5 5 5
6 8 10 12 12 10 5 3 4 5 11 5 1 4 1 6 1 7 4 3 4 9 6 6 10 5 5 3 1 1 3 3 4 0 5 3 10 13 6 5 7 5 4 5 6
5 8 10 11 13 7 2 3 1 2 8 4 2 3 1 1 3 8 4 5 6 4 4 7 5 3 2 3 4 4 1 4 5 2 2 5 16 8 3 5 5 5 5 5 5
4 7 11 10 8 4 3 6 1 4 7 3 2 3 3 3 3 7 4 2 6 5 5 7 2 1 2 4 3 1 2 3 3 6 0 7 7 5 3 3 5 6 5 4 5
4 6 10 13 2 1 1 4 3 2 6 3 3 4 3 1 5 2 3 4 5 5 4 6 0 3 2 2 2 3 2 2 2 3 2 5 5 5 4 8 5 8 7 7 6
3 4 7 8 3 1 2 1 3 4 3 0 2 1 2 3 2 6 2 6 4 4 3 2 2 3 3 1 2 3 2 2 1 2 1 5 3 8 4 5 5 7 7 6 6
3 4 5 3 2 1 3 4 1 9 5 1 1 1 1 5 3 2 3 7 3 5 6 2 1 3 1 2 2 4 1 4 4 1 5 3 4 7 3 4 6 4 7 7 6
5 3 5 1 1 3 2 3 8 4 4 2 2 2 2 2 3 4 4 5 2 6 3 4 2 2 3 3 0 2 3 5 8 8 5 0 2 10 7 6 5 7 8 7 6
6 3 4 3 3 3 1 4 5 3 5 1 1 2 2 1 1 1 3 1 1 6 5 5 6 1 3 2 2 2 1 7 5 2 7 3 5 6 5 5 7 7 7 7 7
9 3 3 2 3 1 5 2 10 7 10 7 1 3 2 1 1 0 0 4 3 4 7 5 3 2 4 1 4 4 4 1 9 3 2 4 8 9 3 5 4 8 6 7 7
4 1 2 2 3 1 6 7 4 3 9 6 3 2 3 3 2 2 3 3 4 1 3 4 2 2 1 1 2 2 5 4 5 4 6 5 6 6 5 5 6 7 8 8 6
3 3 0 3 5 4 5 7 4 3 4 4 5 4 3 4 3 3 3 2 2 4 4 4 4 4 2 3 5 1 1 4 5 3 6 3 8 9 7 4 6 7 7 8 8
4 1 2 1 5 3 5 8 4 4 2 4 7 0 6 6 5 4 4 2 5 7 6 5 4 3 5 2 1 3 3 2 6 4 1 4 12 4 9 8 6 9 8 6 6
5 3 1 1 6 4 4 1 3 6 6 5 5 6 1 4 1 4 3 1 5 5 5 7 1 3 7 5 4 5 4 3 4 4 6 7 10 2 6 8 7 7 8 7 4
4 4 2 1 2 6 5 5 6 1 3 4 8 7 2 2 3 2 4 3 5 3 3 5 2 7 8 6 5 3 4 6 4 5 6 10 9 10 8 8 7 9 7 5 4
3 7 7 8 6 8 6 9 8 7 2 3 3 8 10 5 3 5 3 3 1 5 3 2 5 3 4 4 2 4 6 10 10 6 8 5 10 11 8 8 9 6 5 5 7
7 6 1 3 8 15 8 12 13 6 11 7 5 11 8 8 10 9 7 5 7 4 6 1 2 2 5 1 3 6 10 12 8 4 10 2 17 13 10 6 6 7 4 4 6
3 1 2 8 5 12 18 13 13 12 4 5 12 9 10 12 4 3 2 3 8 11 8 7 6 3 6 1 3 8 11 17 7 6 9 9 15 3 3 7 6 6 6 7 7
Wind_Direction
22 13 9 17 23 26 23 25 16 23 23 18 13 6 1 353 4 48 43 324 326 325 324 278 21 358 41 59 37 88 65 90 179 104 291 352 34 2 309 67 49 75 53 311 317
16 13 4 7 17 27 18 11 10 8 19 18 7 358 351 345 48 54 358 345 342 346 26 36 28 27 54 20 25 65 79 172 197 221 273 351 74 308 8 11 9 354 344 337 337
22 9 11 351 12 28 22 5 5 1 10 14 4 348 340 339 60 331 343 346 350 1 82 45 47 62 59 3 1 55 108 178 11 296 205 159 90 50 353 34 281 311 327 340 340
5 6 15 352 354 18 21 6 360 351 0 10 10 31 23 35 103 291 339 340 355 5 59 22 28 56 63 50 343 88 47 72 355 340 97 55 118 65 33 215 310 324 342 349 359
0 351 8 355 346 355 2 8 349 350 347 3 17 37 38 51 17 308 335 341 25 32 40 62 53 98 89 91 56 78 97 51 29 34 77 101 60 103 351 322 8 8 13 1 360
355 345 352 355 346 339 348 357 347 347 344 353 15 55 80 77 301 332 333 353 32 44 2 23 104 106 93 74 71 116 85 67 38 9 11 6 358 131 217 261 335 16 356 352 360
351 343 345 347 344 336 337 346 331 334 336 351 23 84 62 161 343 329 1 12 358 54 36 6 117 79 123 93 3 77 81 12 11 353 19 41 289 243 262 263 325 349 345 336 342
343 339 341 341 342 337 335 327 308 307 316 11 38 69 85 326 313 358 340 60 25 44 82 7 75 93 58 141 33 51 57 18 328 17 41 32 281 250 203 244 300 337 334 331 335
333 332 332 333 332 340 329 317 305 306 57 92 23 87 96 341 39 323 22 26 331 17 29 55 62 75 27 55 31 8 108 335 323 74 2 37 284 262 205 243 290 322 323 317 321
322 325 330 327 330 348 328 298 348 49 14 47 74 47 9 337 316 336 339 7 59 320 23 35 51 66 36 34 252 305 76 281 273 333 10 305 273 290 256 246 270 293 297 305 316
310 323 329 329 325 359 358 29 22 352 41 76 344 109 23 301 319 352 1 352 32 49 47 17 60 42 347 327 347 298 113 273 261 260 11 294 287 284 271 255 278 271 276 295 301
307 319 326 331 322 13 32 111 95 194 89 15 88 66 61 218 61 349 5 74 55 65 332 34 71 314 261 31 71 339 65 309 283 329 4 331 297 295 251 249 241 270 272 277 298
293 322 324 331 318 42 76 146 35 313 87 22 22 62 314 36 99 329 28 89 86 52 28 109 170 275 64 27 33 350 97 310 283 323 191 326 310 334 322 279 282 271 261 270 275
282 329 335 326 38 348 346 187 114 71 79 352 355 5 343 92 44 332 357 110 51 148 105 94 10 114 83 34 93 306 89 291 284 31 329 31 287 308 323 309 289 290 277 273 289
231 325 353 11 145 69 334 204 141 71 19 11 30 290 347 82 119 1 349 34 109 118 88 196 104 82 65 1 95 285 344 238 311 75 52 27 67 271 347 327 315 324 321 280 275
185 318 18 329 65 82 319 289 39 45 266 327 64 20 56 17 33 311 45 44 136 94 51 87 105 77 109 299 174 295 223 35 42 38 37 337 98 285 293 279 303 303 313 296 288
168 97 78 57 208 95 7 284 49 127 358 255 162 116 89 38 40 36 38 21 122 70 4 355 11 66 52 4 57 44 44 357 358 11 219 349 67 246 279 273 241 284 299 303 298
170 144 58 101 340 58 65 32 113 196 207 3 45 66 101 27 28 49 109 136 355 72 99 128 323 71 12 94 218 340 224 142 208 289 280 303 245 260 218 283 279 277 277 292 293
140 306 90 37 24 22 84 53 188 188 151 141 2 88 318 208 182 205 189 174 169 167 143 123 299 354 66 34 110 306 33 349 102 45 9 268 288 295 278 305 311 294 304 297 292
136 185 79 71 27 59 82 245 153 134 119 121 198 137 212 206 181 208 194 176 155 103 108 189 60 308 64 248 50 224 144 55 9 52 314 298 280 251 314 314 329 322 312 307 306
97 102 249 69 76 43 166 234 205 170 113 135 164 140 213 199 212 215 211 151 167 118 85 129 104 282 76 210 177 281 348 55 108 96 156 294 271 211 225 270 292 290 290 295 299
128 155 283 248 87 311 164 183 165 154 147 109 110 7 190 166 185 250 214 199 157 151 147 180 146 144 206 250 13 282 242 198 121 245 85 131 275 201 226 236 244 271 281 277 286
142 127 316 288 158 242 300 212 213 154 196 136 116 151 159 210 171 200 185 57 148 156 168 179 257 27 353 5 356 251 207 145 90 90 196 134 264 305 271 258 239 267 298 298 306
123 138 317 100 152 147 158 203 194 303 132 120 122 108 180 74 305 202 194 171 180 192 152 113 106 170 193 193 129 204 222 185 147 125 168 227 284 286 276 260 275 286 271 279 286
150 221 189 187 230 170 164 170 151 181 46 194 62 168 166 154 300 207 160 139 164 178 139 180 199 165 259 226 237 226 186 193 199 190 172 244 218 257 250 245 260 245 270 312 300
142 147 347 115 141 186 188 193 175 167 149 217 189 180 163 169 197 202 148 199 190 169 170 205 190 117 290 290 226 262 223 209 216 262 286 83 281 233 271 243 262 245 237 259 273
122 96 143 157 159 175 209 197 191 128 238 175 169 118 180 216 114 10 73 74 145 150 169 155 136 108 268 331 305 279 221 187 186 214 160 188 225 170 272 240 247 246 218 238 246